CTV26Q WAAA-WIMM

Flight info

Callsign CTV26Q
Flight time 3h 3m
Altitude 34000
Route GURNI W35 PNK L504 OBDOS M774 OTLAL DCT TPG A464 IRTAD DCT SAMKO R469 ASUNA L762 AKPAG
Aircraft A320/M-SDE3FGHIRWY/LB1

Departure

Time 2026-04-24 07:11
Airport Sultan Hasanuddin International Airport (WAAA)

Arrival

Time 2026-04-24 10:15
Airport Kualanamu International Airport (WIMM)
Time Latitude Longitude Altitude Speed Heading
2026-04-24 07:01 -5.07814 119.54710 41 ft 0 kts 300°
2026-04-24 07:02 -5.07820 119.54721 41 ft 3 kts 297°
2026-04-24 07:02 -5.07828 119.54739 41 ft 3 kts 288°
2026-04-24 07:03 -5.07833 119.54759 41 ft 3 kts 270°
2026-04-24 07:03 -5.07830 119.54777 41 ft 3 kts 227°
2026-04-24 07:03 -5.07823 119.54783 41 ft 1 kts 210°
2026-04-24 07:03 -5.07821 119.54784 41 ft 3 kts 210°
2026-04-24 07:06 -5.07842 119.54772 39 ft 10 kts 210°
2026-04-24 07:06 -5.07913 119.54732 39 ft 11 kts 210°
2026-04-24 07:06 -5.07985 119.54709 41 ft 13 kts 151°
2026-04-24 07:07 -5.08047 119.54812 41 ft 17 kts 120°
2026-04-24 07:07 -5.08121 119.54844 39 ft 12 kts 206°
2026-04-24 07:07 -5.08299 119.54734 41 ft 19 kts 208°
2026-04-24 07:08 -5.08423 119.54664 40 ft 22 kts 209°
2026-04-24 07:08 -5.08565 119.54582 41 ft 25 kts 210°
2026-04-24 07:08 -5.08718 119.54494 41 ft 26 kts 210°
2026-04-24 07:08 -5.08874 119.54403 41 ft 26 kts 210°
2026-04-24 07:09 -5.09031 119.54318 41 ft 26 kts 209°
2026-04-24 07:09 -5.09161 119.54290 39 ft 16 kts 131°
2026-04-24 07:09 -5.09212 119.54371 41 ft 7 kts 118°
2026-04-24 07:09 -5.09222 119.54391 41 ft 2 kts 108°
2026-04-24 07:10 -5.09217 119.54404 41 ft 6 kts 63°
2026-04-24 07:10 -5.09184 119.54431 42 ft 0 kts 30°
2026-04-24 07:10 -5.09183 119.54431 42 ft 2 kts 30°
2026-04-24 07:10 -5.09040 119.54512 44 ft 58 kts 30°
2026-04-24 07:11 -5.08500 119.54823 41 ft 119 kts 30°
2026-04-24 07:11 -5.07631 119.55321 42 ft 166 kts 28°
2026-04-24 07:11 -5.06566 119.55955 388 ft 181 kts 22°
2026-04-24 07:11 -5.05346 119.56148 1060 ft 181 kts 355°
2026-04-24 07:12 -5.04088 119.56070 1612 ft 186 kts 353°
2026-04-24 07:12 -5.02721 119.55977 1838 ft 208 kts 356°
2026-04-24 07:12 -5.01198 119.55916 2049 ft 231 kts 358°
2026-04-24 07:12 -4.99500 119.55880 2374 ft 254 kts 360°
2026-04-24 07:13 -4.97690 119.55866 2945 ft 264 kts
2026-04-24 07:13 -4.95829 119.55846 3725 ft 269 kts 355°
2026-04-24 07:13 -4.93984 119.55556 4486 ft 273 kts 351°
2026-04-24 07:13 -4.92113 119.55200 5250 ft 274 kts 349°
2026-04-24 07:14 -4.90223 119.54821 5997 ft 279 kts 349°
2026-04-24 07:14 -4.88308 119.54433 6744 ft 281 kts 350°
2026-04-24 07:14 -4.86379 119.54049 7447 ft 284 kts 350°
2026-04-24 07:14 -4.84458 119.53608 8113 ft 288 kts 341°
2026-04-24 07:15 -4.82683 119.52643 8737 ft 295 kts 323°
2026-04-24 07:15 -4.81300 119.51117 9308 ft 300 kts 303°
2026-04-24 07:15 -4.80438 119.49194 9944 ft 304 kts 291°
2026-04-24 07:15 -4.79703 119.47166 10291 ft 319 kts 291°
2026-04-24 07:16 -4.78918 119.45010 10435 ft 339 kts 291°
2026-04-24 07:16 -4.78079 119.42731 10563 ft 358 kts 291°
2026-04-24 07:16 -4.77192 119.40329 10696 ft 375 kts 291°
2026-04-24 07:16 -4.76268 119.37822 10900 ft 388 kts 291°
2026-04-24 07:17 -4.75339 119.35302 11330 ft 392 kts 291°
2026-04-24 07:17 -4.74380 119.32696 11836 ft 396 kts 291°
2026-04-24 07:17 -4.73437 119.30125 12338 ft 398 kts 290°
2026-04-24 07:17 -4.72468 119.27474 12837 ft 401 kts 290°
2026-04-24 07:18 -4.71517 119.24874 13312 ft 404 kts 290°
2026-04-24 07:18 -4.70539 119.22220 13769 ft 408 kts 290°
2026-04-24 07:18 -4.69552 119.19541 14226 ft 411 kts 290°
2026-04-24 07:18 -4.68556 119.16833 14669 ft 414 kts 290°
2026-04-24 07:19 -4.67555 119.14109 15099 ft 417 kts 290°
2026-04-24 07:19 -4.66549 119.11377 15495 ft 419 kts 290°
2026-04-24 07:19 -4.65534 119.08622 15878 ft 422 kts 290°
2026-04-24 07:19 -4.64530 119.05891 16276 ft 425 kts 290°
2026-04-24 07:20 -4.63504 119.03101 16659 ft 428 kts 290°
2026-04-24 07:20 -4.62469 119.00291 16802 ft 430 kts 290°
2026-04-24 07:20 -4.61433 118.97478 16814 ft 430 kts 290°
2026-04-24 07:20 -4.60393 118.94661 16967 ft 432 kts 290°
2026-04-24 07:21 -4.59692 118.92754 17257 ft 432 kts 290°
2026-04-24 07:21 -4.58305 118.88994 17755 ft 436 kts 290°
2026-04-24 07:21 -4.57250 118.86137 18114 ft 439 kts 290°
2026-04-24 07:21 -4.56191 118.83262 18475 ft 440 kts 290°
2026-04-24 07:22 -4.55471 118.81313 18678 ft 441 kts 290°
2026-04-24 07:22 -4.54416 118.78455 18996 ft 444 kts 290°
2026-04-24 07:22 -4.53342 118.75546 19324 ft 447 kts 290°
2026-04-24 07:22 -4.52258 118.72615 19653 ft 449 kts 290°
2026-04-24 07:23 -4.51170 118.69666 19967 ft 452 kts 290°
2026-04-24 07:23 -4.50088 118.66709 20259 ft 454 kts 290°
2026-04-24 07:23 -4.48996 118.63730 20575 ft 456 kts 290°
2026-04-24 07:23 -4.47895 118.60737 20858 ft 458 kts 290°
2026-04-24 07:24 -4.46788 118.57733 21149 ft 461 kts 290°
2026-04-24 07:24 -4.45675 118.54715 21460 ft 464 kts 290°
2026-04-24 07:24 -4.44561 118.51683 21768 ft 464 kts 290°
2026-04-24 07:24 -4.43449 118.48644 21994 ft 466 kts 290°
2026-04-24 07:25 -4.42325 118.45587 22213 ft 468 kts 290°
2026-04-24 07:25 -4.41190 118.42520 22461 ft 470 kts 290°
2026-04-24 07:25 -4.40064 118.39477 22706 ft 472 kts 290°
2026-04-24 07:25 -4.38925 118.36391 22951 ft 474 kts 290°
2026-04-24 07:26 -4.37827 118.33400 23188 ft 475 kts 290°
2026-04-24 07:26 -4.36684 118.30282 23399 ft 477 kts 290°
2026-04-24 07:26 -4.35539 118.27151 23577 ft 479 kts 290°
2026-04-24 07:26 -4.34389 118.24016 23767 ft 481 kts 290°
2026-04-24 07:27 -4.33233 118.20870 23953 ft 482 kts 290°
2026-04-24 07:27 -4.32071 118.17704 24158 ft 484 kts 291°
2026-04-24 07:27 -4.30912 118.14539 24347 ft 485 kts 290°
2026-04-24 07:27 -4.29739 118.11357 24547 ft 487 kts 290°
2026-04-24 07:28 -4.28566 118.08164 24734 ft 489 kts 291°
2026-04-24 07:28 -4.27406 118.05007 24921 ft 490 kts 291°
2026-04-24 07:28 -4.26211 118.01765 25108 ft 489 kts 291°
2026-04-24 07:28 -4.25025 117.98555 25285 ft 492 kts 291°
2026-04-24 07:29 -4.23852 117.95375 25463 ft 494 kts 291°
2026-04-24 07:29 -4.22658 117.92141 25644 ft 495 kts 291°
2026-04-24 07:29 -4.21463 117.88900 25833 ft 497 kts 291°
2026-04-24 07:29 -4.20270 117.85652 26000 ft 497 kts 291°
2026-04-24 07:30 -4.19076 117.82398 26175 ft 499 kts 291°
2026-04-24 07:30 -4.17879 117.79138 26365 ft 499 kts 291°
2026-04-24 07:30 -4.16681 117.75877 26639 ft 498 kts 291°
2026-04-24 07:30 -4.15483 117.72616 26884 ft 498 kts 291°
2026-04-24 07:31 -4.14288 117.69374 27142 ft 497 kts 291°
2026-04-24 07:31 -4.13084 117.66113 27407 ft 497 kts 291°
2026-04-24 07:31 -4.11885 117.62864 27673 ft 496 kts 291°
2026-04-24 07:31 -4.10688 117.59625 27955 ft 495 kts 291°
2026-04-24 07:32 -4.09494 117.56398 28218 ft 495 kts 291°
2026-04-24 07:32 -4.08294 117.53158 28472 ft 494 kts 291°
2026-04-24 07:32 -4.07106 117.49927 28744 ft 494 kts 291°
2026-04-24 07:32 -4.05919 117.46697 29021 ft 493 kts 291°
2026-04-24 07:33 -4.04733 117.43478 29270 ft 493 kts 292°
2026-04-24 07:33 -4.03541 117.40251 29549 ft 493 kts 291°
2026-04-24 07:33 -4.02355 117.37037 29834 ft 492 kts 291°
2026-04-24 07:33 -4.01170 117.33823 30095 ft 491 kts 291°
2026-04-24 07:34 -4.00002 117.30654 30346 ft 491 kts 291°
2026-04-24 07:34 -3.98822 117.27447 30590 ft 492 kts 291°
2026-04-24 07:34 -3.97786 117.24186 30838 ft 492 kts 284°
2026-04-24 07:34 -3.97067 117.20821 31091 ft 492 kts 283°
2026-04-24 07:35 -3.96360 117.17474 31359 ft 491 kts 283°
2026-04-24 07:35 -3.95644 117.14127 31595 ft 491 kts 283°
2026-04-24 07:35 -3.94924 117.10780 31838 ft 491 kts 283°
2026-04-24 07:35 -3.94204 117.07444 32068 ft 491 kts 283°
2026-04-24 07:36 -3.93484 117.04112 32279 ft 490 kts 283°
2026-04-24 07:36 -3.92763 117.00771 32487 ft 490 kts 283°
2026-04-24 07:36 -3.92048 116.97433 32704 ft 490 kts 283°
2026-04-24 07:36 -3.91335 116.94098 32940 ft 490 kts 283°
2026-04-24 07:37 -3.90624 116.90760 33180 ft 489 kts 283°
2026-04-24 07:37 -3.89912 116.87429 33389 ft 489 kts 283°
2026-04-24 07:37 -3.89196 116.84093 33612 ft 489 kts 283°
2026-04-24 07:37 -3.88477 116.80765 33761 ft 490 kts 283°
2026-04-24 07:38 -3.87032 116.74046 33798 ft 494 kts 283°
2026-04-24 07:38 -3.85595 116.67367 33804 ft 494 kts 283°
2026-04-24 07:39 -3.84153 116.60642 33799 ft 494 kts 283°
2026-04-24 07:39 -3.82715 116.53907 33788 ft 494 kts 283°
2026-04-24 07:40 -3.81272 116.47183 33774 ft 494 kts 283°
2026-04-24 07:40 -3.79827 116.40446 33763 ft 494 kts 283°
2026-04-24 07:41 -3.78430 116.33936 33785 ft 495 kts 283°
2026-04-24 07:41 -3.77029 116.27390 33792 ft 495 kts 283°
2026-04-24 07:42 -3.75580 116.20718 33789 ft 495 kts 283°
2026-04-24 07:42 -3.74165 116.14229 33783 ft 494 kts 283°
2026-04-24 07:43 -3.72725 116.07568 33801 ft 494 kts 283°
2026-04-24 07:43 -3.71310 116.01016 33783 ft 494 kts 283°
2026-04-24 07:44 -3.69890 115.94340 33761 ft 493 kts 282°
2026-04-24 07:44 -3.68490 115.87812 33765 ft 493 kts 283°
2026-04-24 07:45 -3.67063 115.81183 33766 ft 493 kts 283°
2026-04-24 07:45 -3.65620 115.74596 33766 ft 491 kts 283°
2026-04-24 07:46 -3.64201 115.68030 33753 ft 492 kts 283°
2026-04-24 07:46 -3.62825 115.61543 33746 ft 492 kts 283°
2026-04-24 07:47 -3.61401 115.54904 33756 ft 492 kts 283°
2026-04-24 07:47 -3.59967 115.48325 33756 ft 491 kts 283°
2026-04-24 07:48 -3.58520 115.41686 33764 ft 492 kts 282°
2026-04-24 07:48 -3.57077 115.35001 33746 ft 491 kts 283°
2026-04-24 07:49 -3.55639 115.28332 33741 ft 489 kts 283°
2026-04-24 07:49 -3.54196 115.21673 33737 ft 490 kts 283°
2026-04-24 07:50 -3.52754 115.14998 33751 ft 489 kts 283°
2026-04-24 07:50 -3.51304 115.08342 33745 ft 490 kts 283°
2026-04-24 07:51 -3.49874 115.01727 33755 ft 489 kts 283°
2026-04-24 07:51 -3.48444 114.95068 33751 ft 489 kts 283°
2026-04-24 07:52 -3.46994 114.88408 33764 ft 489 kts 283°
2026-04-24 07:52 -3.45541 114.81752 33764 ft 490 kts 283°
2026-04-24 07:53 -3.44094 114.75367 33768 ft 489 kts 288°
2026-04-24 07:53 -3.41258 114.69274 33772 ft 485 kts 303°
2026-04-24 07:54 -3.37657 114.63554 33756 ft 485 kts 303°
2026-04-24 07:54 -3.34081 114.57822 33765 ft 485 kts 303°
2026-04-24 07:55 -3.30526 114.52137 33764 ft 485 kts 303°
2026-04-24 07:55 -3.26952 114.46416 33761 ft 485 kts 303°
2026-04-24 07:56 -3.23366 114.40680 33771 ft 486 kts 303°
2026-04-24 07:56 -3.19780 114.34954 33775 ft 485 kts 303°
2026-04-24 07:57 -3.16192 114.29235 33768 ft 485 kts 303°
2026-04-24 07:57 -3.12598 114.23510 33762 ft 486 kts 303°
2026-04-24 07:58 -3.09009 114.17787 33761 ft 485 kts 303°
2026-04-24 07:58 -3.05425 114.12063 33750 ft 486 kts 303°
2026-04-24 07:59 -3.01932 114.06507 33749 ft 486 kts 303°
2026-04-24 07:59 -2.98401 114.00897 33767 ft 486 kts 303°
2026-04-24 08:00 -2.94868 113.95235 33767 ft 486 kts 302°
2026-04-24 08:00 -2.91321 113.89549 33766 ft 487 kts 303°
2026-04-24 08:01 -2.87722 113.83816 33783 ft 486 kts 303°
2026-04-24 08:01 -2.84120 113.78085 33756 ft 486 kts 303°
2026-04-24 08:02 -2.80529 113.72358 33778 ft 485 kts 303°
2026-04-24 08:02 -2.76940 113.66641 33765 ft 485 kts 303°
2026-04-24 08:03 -2.73351 113.60916 33760 ft 484 kts 302°
2026-04-24 08:03 -2.69769 113.55205 33766 ft 484 kts 302°
2026-04-24 08:04 -2.66192 113.49505 33769 ft 484 kts 303°
2026-04-24 08:04 -2.62634 113.43837 33762 ft 483 kts 302°
2026-04-24 08:05 -2.59065 113.38140 33755 ft 483 kts 302°
2026-04-24 08:05 -2.55594 113.32601 33748 ft 484 kts 303°
2026-04-24 08:06 -2.52080 113.27014 33753 ft 484 kts 302°
2026-04-24 08:06 -2.48558 113.21375 33763 ft 485 kts 302°
2026-04-24 08:07 -2.45064 113.15770 33778 ft 486 kts 302°
2026-04-24 08:07 -2.41538 113.10127 33791 ft 486 kts 302°
2026-04-24 08:08 -2.38005 113.04498 33782 ft 485 kts 302°
2026-04-24 08:09 -2.33361 112.97077 33792 ft 485 kts 302°
2026-04-24 08:09 -2.29807 112.91401 33788 ft 484 kts 302°
2026-04-24 08:10 -2.26286 112.85796 33782 ft 483 kts 302°
2026-04-24 08:10 -2.22907 112.80399 33777 ft 483 kts 303°
2026-04-24 08:11 -2.19358 112.74653 33761 ft 484 kts 302°
2026-04-24 08:11 -2.15822 112.69060 33781 ft 483 kts 303°
2026-04-24 08:12 -2.12286 112.63475 33781 ft 483 kts 302°
2026-04-24 08:12 -2.08797 112.57896 33782 ft 483 kts 302°
2026-04-24 08:13 -2.05268 112.52242 33765 ft 484 kts 302°
2026-04-24 08:13 -2.01788 112.46688 33781 ft 483 kts 302°
2026-04-24 08:14 -1.98230 112.41079 33781 ft 483 kts 302°
2026-04-24 08:14 -1.94801 112.35530 33752 ft 484 kts 300°
2026-04-24 08:15 -1.91348 112.29818 33756 ft 483 kts 302°
2026-04-24 08:15 -1.87795 112.24276 33757 ft 481 kts 303°
2026-04-24 08:16 -1.84260 112.18739 33755 ft 483 kts 302°
2026-04-24 08:16 -1.80805 112.13227 33764 ft 483 kts 302°
2026-04-24 08:17 -1.77295 112.07607 33765 ft 483 kts 302°
2026-04-24 08:17 -1.73759 112.01980 33778 ft 483 kts 302°
2026-04-24 08:18 -1.70257 111.96400 33770 ft 483 kts 302°
2026-04-24 08:18 -1.66766 111.90812 33773 ft 483 kts 302°
2026-04-24 08:19 -1.63248 111.85217 33761 ft 482 kts 302°
2026-04-24 08:19 -1.59762 111.79655 33758 ft 482 kts 302°
2026-04-24 08:20 -1.56233 111.74038 33776 ft 482 kts 302°
2026-04-24 08:20 -1.52728 111.68476 33780 ft 482 kts 302°
2026-04-24 08:21 -1.49275 111.62995 33763 ft 482 kts 302°
2026-04-24 08:21 -1.45681 111.57347 33780 ft 482 kts 303°
2026-04-24 08:22 -1.42170 111.51796 33758 ft 482 kts 302°
2026-04-24 08:22 -1.38677 111.46183 33776 ft 482 kts 302°
2026-04-24 08:23 -1.35176 111.40578 33763 ft 483 kts 302°
2026-04-24 08:23 -1.31662 111.35008 33765 ft 483 kts 302°
2026-04-24 08:24 -1.28127 111.29413 33755 ft 484 kts 302°
2026-04-24 08:24 -1.24614 111.23841 33741 ft 484 kts 302°
2026-04-24 08:25 -1.21119 111.18299 33739 ft 483 kts 302°
2026-04-24 08:25 -1.17561 111.12672 33742 ft 481 kts 302°
2026-04-24 08:26 -1.14084 111.07175 33733 ft 483 kts 303°
2026-04-24 08:26 -1.10508 111.01527 33742 ft 484 kts 302°
2026-04-24 08:27 -1.07038 110.96016 33731 ft 484 kts 302°
2026-04-24 08:27 -1.03486 110.90378 33740 ft 484 kts 303°
2026-04-24 08:28 -0.99918 110.84740 33751 ft 485 kts 303°
2026-04-24 08:28 -0.96451 110.79207 33742 ft 484 kts 302°
2026-04-24 08:29 -0.92884 110.73503 33741 ft 484 kts 303°
2026-04-24 08:29 -0.89390 110.68023 33737 ft 484 kts 303°
2026-04-24 08:30 -0.85848 110.62406 33739 ft 483 kts 302°
2026-04-24 08:30 -0.82307 110.56689 33724 ft 483 kts 302°
2026-04-24 08:31 -0.78766 110.50978 33723 ft 484 kts 303°
2026-04-24 08:31 -0.75202 110.45271 33732 ft 484 kts 302°
2026-04-24 08:32 -0.71628 110.39573 33714 ft 483 kts 303°
2026-04-24 08:32 -0.68069 110.33879 33717 ft 483 kts 302°
2026-04-24 08:33 -0.64523 110.28168 33722 ft 484 kts 302°
2026-04-24 08:33 -0.60973 110.22471 33721 ft 483 kts 302°
2026-04-24 08:34 -0.57396 110.16775 33742 ft 484 kts 303°
2026-04-24 08:34 -0.53832 110.11073 33737 ft 484 kts 302°
2026-04-24 08:35 -0.50293 110.05391 33735 ft 485 kts 302°
2026-04-24 08:35 -0.46732 109.99667 33749 ft 485 kts 302°
2026-04-24 08:36 -0.43164 109.93944 33744 ft 485 kts 303°
2026-04-24 08:36 -0.39584 109.88218 33740 ft 486 kts 303°
2026-04-24 08:37 -0.36006 109.82490 33743 ft 486 kts 303°
2026-04-24 08:37 -0.32417 109.76750 33742 ft 486 kts 302°
2026-04-24 08:38 -0.28837 109.71011 33745 ft 485 kts 303°
2026-04-24 08:38 -0.25289 109.65316 33749 ft 487 kts 302°
2026-04-24 08:39 -0.21715 109.59587 33745 ft 485 kts 302°
2026-04-24 08:39 -0.18143 109.53870 33749 ft 486 kts 302°
2026-04-24 08:40 -0.14562 109.48145 33752 ft 485 kts 302°
2026-04-24 08:40 -0.11007 109.42447 33757 ft 486 kts 302°
2026-04-24 08:41 -0.07900 109.36456 33755 ft 487 kts 289°
2026-04-24 08:41 -0.06327 109.29892 33765 ft 486 kts 282°
2026-04-24 08:42 -0.04922 109.23292 33751 ft 485 kts 282°
2026-04-24 08:42 -0.03519 109.16700 33741 ft 485 kts 282°
2026-04-24 08:43 -0.02125 109.10105 33746 ft 485 kts 282°
2026-04-24 08:43 -0.00728 109.03515 33736 ft 485 kts 282°
2026-04-24 08:44 0.00647 108.96910 33755 ft 485 kts 281°
2026-04-24 08:44 0.01974 108.90302 33766 ft 485 kts 281°
2026-04-24 08:45 0.03287 108.83698 33763 ft 485 kts 281°
2026-04-24 08:45 0.04607 108.77138 33775 ft 485 kts 281°
2026-04-24 08:46 0.05948 108.70537 33771 ft 484 kts 281°
2026-04-24 08:46 0.07281 108.63945 33774 ft 484 kts 281°
2026-04-24 08:47 0.08608 108.57348 33771 ft 483 kts 282°
2026-04-24 08:47 0.09930 108.50785 33770 ft 482 kts 281°
2026-04-24 08:48 0.11247 108.44216 33765 ft 483 kts 281°
2026-04-24 08:48 0.12578 108.37646 33771 ft 482 kts 281°
2026-04-24 08:49 0.13903 108.31086 33760 ft 481 kts 281°
2026-04-24 08:49 0.15223 108.24529 33772 ft 482 kts 281°
2026-04-24 08:50 0.16542 108.18006 33764 ft 482 kts 282°
2026-04-24 08:50 0.17878 108.11398 33765 ft 482 kts 281°
2026-04-24 08:51 0.19209 108.04831 33760 ft 482 kts 281°
2026-04-24 08:51 0.20522 107.98290 33760 ft 483 kts 281°
2026-04-24 08:52 0.21846 107.91694 33755 ft 484 kts 281°
2026-04-24 08:52 0.23179 107.85111 33778 ft 484 kts 281°
2026-04-24 08:53 0.24506 107.78537 33789 ft 483 kts 282°
2026-04-24 08:53 0.25842 107.71935 33788 ft 483 kts 281°
2026-04-24 08:54 0.27161 107.65407 33782 ft 482 kts 281°
2026-04-24 08:54 0.28484 107.58844 33782 ft 482 kts 281°
2026-04-24 08:55 0.29805 107.52275 33781 ft 483 kts 281°
2026-04-24 08:55 0.31124 107.45705 33779 ft 482 kts 281°
2026-04-24 08:56 0.32447 107.39137 33780 ft 482 kts 281°
2026-04-24 08:56 0.33554 107.33694 33789 ft 482 kts 281°
2026-04-24 08:57 0.35108 107.26003 33790 ft 482 kts 281°
2026-04-24 08:57 0.36206 107.20541 33786 ft 482 kts 282°
2026-04-24 08:58 0.37535 107.13972 33785 ft 482 kts 281°
2026-04-24 08:58 0.38857 107.07401 33781 ft 483 kts 281°
2026-04-24 08:59 0.40182 107.00825 33784 ft 482 kts 281°
2026-04-24 08:59 0.41498 106.94283 33785 ft 483 kts 281°
2026-04-24 09:00 0.42829 106.87707 33789 ft 482 kts 281°
2026-04-24 09:00 0.44159 106.81127 33791 ft 483 kts 281°
2026-04-24 09:01 0.45488 106.74540 33782 ft 483 kts 281°
2026-04-24 09:01 0.46810 106.67960 33783 ft 484 kts 281°
2026-04-24 09:02 0.48130 106.61370 33782 ft 483 kts 281°
2026-04-24 09:02 0.49459 106.54782 33788 ft 484 kts 281°
2026-04-24 09:03 0.50786 106.48188 33786 ft 485 kts 281°
2026-04-24 09:03 0.52111 106.41603 33787 ft 482 kts 281°
2026-04-24 09:04 0.53432 106.35067 33782 ft 483 kts 281°
2026-04-24 09:04 0.54760 106.28480 33781 ft 483 kts 281°
2026-04-24 09:05 0.56078 106.21897 33795 ft 484 kts 281°
2026-04-24 09:05 0.57398 106.15291 33806 ft 484 kts 281°
2026-04-24 09:06 0.58728 106.08705 33801 ft 484 kts 281°
2026-04-24 09:06 0.60043 106.02162 33791 ft 483 kts 281°
2026-04-24 09:07 0.61368 105.95585 33789 ft 483 kts 281°
2026-04-24 09:07 0.63361 105.85699 33792 ft 483 kts 281°
2026-04-24 09:08 0.64690 105.79111 33789 ft 484 kts 281°
2026-04-24 09:08 0.66017 105.72512 33794 ft 484 kts 281°
2026-04-24 09:09 0.67332 105.65905 33804 ft 484 kts 281°
2026-04-24 09:09 0.68663 105.59308 33810 ft 484 kts 281°
2026-04-24 09:10 0.69985 105.52729 33801 ft 482 kts 281°
2026-04-24 09:10 0.71306 105.46159 33811 ft 482 kts 281°
2026-04-24 09:11 0.72623 105.39610 33813 ft 480 kts 281°
2026-04-24 09:11 0.73927 105.33106 33817 ft 481 kts 281°
2026-04-24 09:12 0.75251 105.26558 33814 ft 480 kts 281°
2026-04-24 09:12 0.76574 105.19999 33820 ft 482 kts 280°
2026-04-24 09:13 0.77497 105.13638 33819 ft 482 kts 275°
2026-04-24 09:13 0.78133 105.06985 33812 ft 481 kts 274°
2026-04-24 09:14 0.78774 105.00331 33807 ft 481 kts 275°
2026-04-24 09:14 0.79521 104.93669 33811 ft 482 kts 276°
2026-04-24 09:15 0.80302 104.87027 33815 ft 481 kts 276°
2026-04-24 09:15 0.81073 104.80385 33809 ft 481 kts 276°
2026-04-24 09:16 0.81830 104.73736 33811 ft 481 kts 276°
2026-04-24 09:16 0.82581 104.67084 33811 ft 481 kts 276°
2026-04-24 09:17 0.83328 104.60473 33819 ft 483 kts 276°
2026-04-24 09:17 0.84091 104.53804 33815 ft 481 kts 276°
2026-04-24 09:18 0.84850 104.47155 33808 ft 482 kts 276°
2026-04-24 09:18 0.85602 104.40498 33807 ft 483 kts 276°
2026-04-24 09:19 0.86358 104.33824 33819 ft 483 kts 276°
2026-04-24 09:19 0.87118 104.27155 33808 ft 482 kts 276°
2026-04-24 09:20 0.87872 104.20486 33810 ft 483 kts 275°
2026-04-24 09:20 0.88629 104.13809 33810 ft 484 kts 276°
2026-04-24 09:21 0.89391 104.07131 33821 ft 483 kts 276°
2026-04-24 09:21 0.90150 104.00456 33825 ft 483 kts 276°
2026-04-24 09:22 0.90900 103.93825 33828 ft 483 kts 275°
2026-04-24 09:22 0.91655 103.87155 33824 ft 483 kts 276°
2026-04-24 09:23 0.92420 103.80463 33822 ft 483 kts 275°
2026-04-24 09:23 0.93172 103.73785 33820 ft 483 kts 275°
2026-04-24 09:24 0.93930 103.67109 33817 ft 484 kts 275°
2026-04-24 09:24 0.94687 103.60444 33826 ft 483 kts 275°
2026-04-24 09:25 0.95434 103.53818 33826 ft 482 kts 275°
2026-04-24 09:25 0.96188 103.47159 33822 ft 482 kts 276°
2026-04-24 09:26 0.96939 103.40508 33816 ft 482 kts 276°
2026-04-24 09:26 0.97702 103.33854 33810 ft 481 kts 276°
2026-04-24 09:27 0.98457 103.27210 33804 ft 482 kts 276°
2026-04-24 09:27 0.99209 103.20559 33808 ft 482 kts 275°
2026-04-24 09:28 1.00622 103.14035 33799 ft 482 kts 290°
2026-04-24 09:28 1.03066 103.07785 33799 ft 483 kts 290°
2026-04-24 09:29 1.05512 103.01537 33798 ft 483 kts 291°
2026-04-24 09:29 1.07964 102.95270 33802 ft 484 kts 291°
2026-04-24 09:30 1.10392 102.89048 33796 ft 483 kts 290°
2026-04-24 09:30 1.12828 102.82795 33796 ft 483 kts 290°
2026-04-24 09:31 1.15267 102.76532 33807 ft 483 kts 290°
2026-04-24 09:31 1.17715 102.70284 33799 ft 483 kts 291°
2026-04-24 09:32 1.20168 102.64010 33798 ft 484 kts 290°
2026-04-24 09:32 1.22614 102.57725 33790 ft 485 kts 290°
2026-04-24 09:33 1.25062 102.51442 33798 ft 485 kts 290°
2026-04-24 09:33 1.27510 102.45169 33792 ft 483 kts 290°
2026-04-24 09:34 1.29936 102.38953 33795 ft 483 kts 290°
2026-04-24 09:34 1.32377 102.32686 33804 ft 484 kts 290°
2026-04-24 09:35 1.34826 102.26433 33786 ft 482 kts 290°
2026-04-24 09:35 1.37252 102.20190 33781 ft 482 kts 290°
2026-04-24 09:36 1.39750 102.13949 33782 ft 483 kts 295°
2026-04-24 09:36 1.43127 102.08128 33779 ft 484 kts 300°
2026-04-24 09:37 1.46576 102.02357 33781 ft 484 kts 300°
2026-04-24 09:37 1.50016 101.96566 33776 ft 483 kts 300°
2026-04-24 09:38 1.53458 101.90795 33777 ft 483 kts 300°
2026-04-24 09:38 1.56905 101.85044 33750 ft 482 kts 300°
2026-04-24 09:39 1.60319 101.79326 33749 ft 482 kts 300°
2026-04-24 09:39 1.63758 101.73576 33771 ft 482 kts 300°
2026-04-24 09:40 1.67201 101.67808 33758 ft 483 kts 300°
2026-04-24 09:40 1.70637 101.62036 33757 ft 483 kts 300°
2026-04-24 09:41 1.74078 101.56278 33746 ft 482 kts 300°
2026-04-24 09:41 1.77512 101.50519 33760 ft 482 kts 300°
2026-04-24 09:42 1.80937 101.44773 33745 ft 481 kts 300°
2026-04-24 09:42 1.83779 101.40002 33746 ft 480 kts 300°
2026-04-24 09:43 1.87768 101.33331 33744 ft 481 kts 300°
2026-04-24 09:43 1.90634 101.28521 33740 ft 481 kts 300°
2026-04-24 09:44 1.94040 101.22798 33761 ft 482 kts 300°
2026-04-24 09:44 1.97478 101.17045 33763 ft 482 kts 300°
2026-04-24 09:45 2.00908 101.11297 33746 ft 481 kts 300°
2026-04-24 09:45 2.04324 101.05548 33744 ft 481 kts 300°
2026-04-24 09:46 2.07753 100.99794 33744 ft 482 kts 300°
2026-04-24 09:46 2.11178 100.94041 33734 ft 481 kts 300°
2026-04-24 09:47 2.14598 100.88311 33740 ft 481 kts 300°
2026-04-24 09:47 2.18035 100.82563 33732 ft 480 kts 300°
2026-04-24 09:48 2.21454 100.76809 33738 ft 482 kts 300°
2026-04-24 09:48 2.24887 100.71048 33746 ft 483 kts 300°
2026-04-24 09:49 2.28320 100.65295 33758 ft 481 kts 300°
2026-04-24 09:49 2.31758 100.59554 33470 ft 481 kts 300°
2026-04-24 09:50 2.33472 100.56679 33221 ft 481 kts 300°
2026-04-24 09:50 2.35183 100.53797 32964 ft 482 kts 300°
2026-04-24 09:50 2.36868 100.50957 32706 ft 482 kts 300°
2026-04-24 09:50 2.38585 100.48066 32474 ft 483 kts 300°
2026-04-24 09:51 2.40309 100.45176 32226 ft 484 kts 300°
2026-04-24 09:51 2.42027 100.42305 31979 ft 485 kts 300°
2026-04-24 09:51 2.43775 100.39384 31731 ft 486 kts 300°
2026-04-24 09:51 2.45513 100.36483 31488 ft 487 kts 300°
2026-04-24 09:52 2.47251 100.33568 31246 ft 487 kts 300°
2026-04-24 09:52 2.48984 100.30657 31001 ft 488 kts 300°
2026-04-24 09:52 2.50728 100.27734 30744 ft 490 kts 300°
2026-04-24 09:52 2.52480 100.24805 30485 ft 490 kts 300°
2026-04-24 09:53 2.54233 100.21876 30228 ft 490 kts 300°
2026-04-24 09:53 2.55992 100.18935 29983 ft 492 kts 300°
2026-04-24 09:53 2.57719 100.16042 29755 ft 492 kts 300°
2026-04-24 09:53 2.59475 100.13101 29509 ft 493 kts 300°
2026-04-24 09:54 2.61232 100.10155 29258 ft 493 kts 300°
2026-04-24 09:54 2.62987 100.07212 28874 ft 493 kts 300°
2026-04-24 09:54 2.64746 100.04260 27629 ft 493 kts 300°
2026-04-24 09:54 2.66487 100.01329 26317 ft 485 kts 300°
2026-04-24 09:55 2.68216 99.98419 25040 ft 490 kts 301°
2026-04-24 09:55 2.69976 99.95465 23725 ft 495 kts 301°
2026-04-24 09:55 2.71546 99.92397 22481 ft 498 kts 292°
2026-04-24 09:55 2.72674 99.89147 21996 ft 490 kts 288°
2026-04-24 09:56 2.73726 99.85904 21732 ft 488 kts 288°
2026-04-24 09:56 2.74786 99.82685 21464 ft 486 kts 288°
2026-04-24 09:56 2.75830 99.79545 21054 ft 484 kts 288°
2026-04-24 09:56 2.76912 99.76305 20664 ft 481 kts 288°
2026-04-24 09:57 2.77952 99.73177 20267 ft 479 kts 288°
2026-04-24 09:57 2.78994 99.70020 19881 ft 476 kts 288°
2026-04-24 09:57 2.80021 99.66889 19479 ft 474 kts 288°
2026-04-24 09:57 2.81044 99.63761 19095 ft 472 kts 288°
2026-04-24 09:58 2.82062 99.60649 18707 ft 470 kts 288°
2026-04-24 09:58 2.83076 99.57554 18320 ft 468 kts 288°
2026-04-24 09:58 2.84088 99.54467 17940 ft 466 kts 288°
2026-04-24 09:58 2.85099 99.51401 17560 ft 464 kts 288°
2026-04-24 09:59 2.86112 99.48345 17168 ft 461 kts 288°
2026-04-24 09:59 2.87117 99.45305 16799 ft 458 kts 288°
2026-04-24 09:59 2.88108 99.42284 16420 ft 454 kts 288°
2026-04-24 09:59 2.89086 99.39292 16050 ft 452 kts 288°
2026-04-24 10:00 2.90062 99.36311 15682 ft 449 kts 288°
2026-04-24 10:00 2.91025 99.33376 15364 ft 438 kts 288°
2026-04-24 10:00 2.91964 99.30520 15224 ft 422 kts 288°
2026-04-24 10:00 2.92855 99.27784 15092 ft 406 kts 288°
2026-04-24 10:01 2.93721 99.25139 14968 ft 392 kts 288°
2026-04-24 10:01 2.94549 99.22627 14846 ft 380 kts 288°
2026-04-24 10:01 2.95365 99.20155 14726 ft 366 kts 288°
2026-04-24 10:01 2.96153 99.17768 14598 ft 355 kts 288°
2026-04-24 10:02 2.96913 99.15461 14474 ft 344 kts 288°
2026-04-24 10:02 2.97858 99.13296 14332 ft 335 kts 300°
2026-04-24 10:02 2.99178 99.11394 14075 ft 331 kts 311°
2026-04-24 10:02 3.00780 99.09749 13754 ft 329 kts 315°
2026-04-24 10:03 3.02396 99.08147 13408 ft 326 kts 315°
2026-04-24 10:03 3.04002 99.06551 13070 ft 325 kts 315°
2026-04-24 10:03 3.05598 99.04965 12644 ft 319 kts 315°
2026-04-24 10:03 3.07151 99.03417 12009 ft 318 kts 315°
2026-04-24 10:04 3.08722 99.01848 11397 ft 314 kts 315°
2026-04-24 10:04 3.10258 99.00316 10769 ft 311 kts 315°
2026-04-24 10:04 3.11788 98.98794 10135 ft 309 kts 315°
2026-04-24 10:04 3.13302 98.97293 9694 ft 301 kts 316°
2026-04-24 10:05 3.14787 98.95818 9409 ft 301 kts 315°
2026-04-24 10:05 3.16275 98.94336 9093 ft 301 kts 315°
2026-04-24 10:05 3.17753 98.92861 8788 ft 299 kts 315°
2026-04-24 10:05 3.19219 98.91399 8475 ft 296 kts 316°
2026-04-24 10:06 3.20674 98.89947 8164 ft 294 kts 316°
2026-04-24 10:06 3.23528 98.87105 7571 ft 291 kts 315°
2026-04-24 10:06 3.24974 98.85663 7254 ft 290 kts 315°
2026-04-24 10:07 3.26398 98.84235 6958 ft 288 kts 315°
2026-04-24 10:07 3.27817 98.82822 6648 ft 287 kts 315°
2026-04-24 10:07 3.29229 98.81422 6354 ft 286 kts 315°
2026-04-24 10:07 3.30628 98.80033 6055 ft 283 kts 315°
2026-04-24 10:08 3.32030 98.78652 5751 ft 283 kts 316°
2026-04-24 10:08 3.33447 98.77292 5452 ft 282 kts 316°
2026-04-24 10:08 3.34870 98.75945 5153 ft 281 kts 317°
2026-04-24 10:08 3.36288 98.74601 4842 ft 279 kts 317°
2026-04-24 10:09 3.37698 98.73265 4538 ft 279 kts 316°
2026-04-24 10:09 3.39097 98.71939 4241 ft 275 kts 316°
2026-04-24 10:09 3.40586 98.70751 3951 ft 274 kts 330°
2026-04-24 10:09 3.42328 98.70052 3743 ft 266 kts 347°
2026-04-24 10:10 3.44109 98.69881 3632 ft 252 kts
2026-04-24 10:10 3.45802 98.70171 3476 ft 242 kts 18°
2026-04-24 10:10 3.47298 98.70855 3339 ft 232 kts 33°
2026-04-24 10:10 3.48542 98.71863 3234 ft 230 kts 45°
2026-04-24 10:11 3.49668 98.72988 3123 ft 229 kts 44°
2026-04-24 10:11 3.50802 98.74115 3032 ft 228 kts 45°
2026-04-24 10:11 3.51914 98.75222 2912 ft 223 kts 45°
2026-04-24 10:11 3.53014 98.76320 2665 ft 224 kts 43°
2026-04-24 10:12 3.54138 98.77434 2365 ft 231 kts 44°
2026-04-24 10:12 3.55284 98.78579 2061 ft 233 kts 45°
2026-04-24 10:12 3.56425 98.79715 1733 ft 229 kts 44°
2026-04-24 10:12 3.57502 98.80788 1467 ft 209 kts 45°
2026-04-24 10:13 3.58486 98.81769 1204 ft 183 kts 44°
2026-04-24 10:13 3.59323 98.82604 959 ft 159 kts 44°
2026-04-24 10:13 3.60060 98.83338 755 ft 145 kts 45°
2026-04-24 10:13 3.60774 98.84056 531 ft 143 kts 46°
2026-04-24 10:14 3.61471 98.84762 349 ft 142 kts 44°
2026-04-24 10:14 3.62178 98.85455 177 ft 142 kts 45°
2026-04-24 10:14 3.62876 98.86154 48 ft 140 kts 45°
2026-04-24 10:14 3.63492 98.86765 36 ft 104 kts 45°
2026-04-24 10:15 3.63896 98.87165 37 ft 57 kts 45°
2026-04-24 10:15 3.64074 98.87393 34 ft 34 kts 66°
2026-04-24 10:15 3.64121 98.87538 35 ft 14 kts 75°
2026-04-24 10:15 3.64136 98.87596 36 ft 10 kts 75°
2026-04-24 10:16 3.64178 98.87691 38 ft 6 kts 54°
2026-04-24 10:16 3.64203 98.87726 38 ft 4 kts 53°
2026-04-24 10:16 3.64220 98.87745 39 ft 6 kts 46°
2026-04-24 10:17 3.64268 98.87794 39 ft 14 kts 44°
2026-04-24 10:17 3.64339 98.87865 39 ft 15 kts 45°
2026-04-24 10:17 3.64410 98.87937 39 ft 14 kts 56°
2026-04-24 10:17 3.64393 98.88015 40 ft 11 kts 135°
2026-04-24 10:18 3.64341 98.88066 40 ft 10 kts 135°
2026-04-24 10:18 3.64298 98.88109 40 ft 8 kts 135°
2026-04-24 10:18 3.64261 98.88145 40 ft 7 kts 135°
2026-04-24 10:18 3.64231 98.88174 40 ft 5 kts 135°
2026-04-24 10:19 3.64202 98.88200 40 ft 6 kts 143°
2026-04-24 10:19 3.64158 98.88195 40 ft 10 kts 218°
2026-04-24 10:19 3.64101 98.88139 40 ft 11 kts 226°
2026-04-24 10:19 3.64056 98.88093 40 ft 7 kts 226°
2026-04-24 10:20 3.64047 98.88083 40 ft 0 kts 225°
2026-04-24 10:20 3.64046 98.88083 40 ft 0 kts 225°
2026-04-24 10:20 3.64015 98.88050 40 ft 9 kts 225°
2026-04-24 10:21 3.63995 98.88030 40 ft 3 kts 225°
2026-04-24 10:21 3.63984 98.88020 40 ft 2 kts 222°
2026-04-24 10:21 3.63979 98.88013 40 ft 0 kts 242°
2026-04-24 10:21 3.63979 98.88010 40 ft 2 kts 255°
2026-04-24 10:22 3.63991 98.87993 40 ft 3 kts 314°
2026-04-24 10:22 3.64001 98.87982 40 ft 2 kts 314°
2026-04-24 10:22 3.64011 98.87973 40 ft 4 kts 315°
2026-04-24 10:22 3.64026 98.87958 40 ft 1 kts 315°